EHI
6 5 4 3 1 0 0 0 0 0 0 0 0 0 0 0 0 0 0 0 0 0 0 0 0 0 0 0 0 0 0 0 0 0 0 0 0 0 0 0 0 0 0
6 5 4 3 1 0 0 0 0 0 0 0 0 0 0 0 0 0 0 0 0 0 0 0 0 0 0 0 0 0 0 0 0 0 0 0 0 0 0 0 0 0 0
5 4 4 3 1 0 0 0 0 0 0 0 0 0 0 0 0 0 0 0 0 0 0 0 0 0 0 0 0 0 0 0 0 0 0 0 0 0 0 0 0 0 0
6 4 3 2 1 0 0 0 0 0 0 0 0 0 0 0 0 0 0 0 0 0 0 0 0 0 0 0 0 0 0 0 0 0 0 0 0 0 0 0 0 0 0
6 5 4 2 1 0 0 0 0 0 0 0 0 0 0 0 0 0 0 0 0 0 0 0 0 0 0 0 0 0 0 0 0 0 0 0 0 0 0 0 0 0 0
6 5 3 1 0 0 0 0 0 0 0 0 0 0 0 0 0 0 0 0 0 0 0 0 0 0 0 0 0 0 0 0 0 0 0 0 0 0 0 0 0 0 0
3 3 2 1 0 0 0 0 0 0 0 0 0 0 0 0 0 0 0 0 0 0 0 0 0 0 0 0 0 0 0 0 0 0 0 0 0 0 0 0 0 0 0
1 1 1 0 0 0 0 0 0 0 0 0 0 0 0 0 0 0 0 0 0 0 0 0 0 0 0 0 0 0 0 0 0 0 0 0 0 0 0 0 0 0 0
0 0 0 0 0 0 0 0 0 0 0 0 0 0 0 0 0 0 0 0 0 0 0 0 0 0 0 0 0 0 0 0 0 0 0 0 0 0 0 0 0 0 0
0 0 0 0 0 0 0 0 0 0 0 0 0 0 0 0 0 0 0 0 0 0 0 0 0 0 0 0 0 0 0 0 0 0 0 0 0 0 0 0 0 0 0
0 0 0 0 0 0 0 0 0 0 0 0 0 0 0 0 0 0 0 0 0 0 0 0 0 0 0 0 0 0 0 0 0 0 0 0 0 0 0 0 0 0 0
0 0 0 0 0 0 0 0 0 0 0 0 0 0 0 0 0 0 0 0 0 0 0 0 0 0 0 0 0 0 0 0 0 0 0 0 0 0 0 0 0 0 0
0 0 0 0 0 0 0 0 0 0 0 0 0 0 0 0 0 0 0 0 0 0 0 0 0 0 0 0 0 0 0 0 0 0 0 0 0 0 0 0 0 0 0
0 0 0 0 0 0 0 0 0 0 0 0 0 0 0 0 0 0 0 0 0 0 0 0 0 0 0 0 0 0 0 0 0 0 0 0 0 0 0 0 0 0 0
0 0 0 0 0 0 0 0 0 0 0 0 0 0 0 0 0 0 0 0 0 0 0 0 0 0 0 0 0 0 0 0 0 0 0 0 0 0 0 0 0 0 0
0 0 0 0 0 0 0 0 0 0 0 0 0 0 0 0 0 0 0 0 0 0 0 0 0 0 0 0 0 0 0 0 0 0 0 0 0 0 0 0 0 0 0
0 0 0 0 0 0 0 0 0 0 0 0 0 0 0 0 0 0 0 0 0 0 0 0 0 0 0 0 0 0 0 0 0 0 0 0 0 0 0 0 0 0 0
0 0 0 0 0 0 0 0 0 0 0 0 0 0 0 0 0 0 0 0 0 0 0 0 0 0 0 0 0 0 0 0 0 0 0 0 0 0 0 0 0 0 0
0 0 0 0 0 0 0 0 0 0 0 0 0 0 0 0 0 0 0 0 0 0 0 0 0 0 0 0 0 0 0 0 0 0 0 0 0 0 0 0 0 0 0
0 0 0 0 0 0 0 0 0 0 0 0 0 0 0 0 0 0 0 0 0 0 0 0 0 0 0 0 0 0 0 0 0 0 0 0 0 0 0 0 0 0 0
0 0 0 0 0 0 0 0 0 0 0 0 0 0 0 0 0 0 0 0 0 0 0 0 0 0 0 0 0 0 0 0 0 0 0 0 0 0 0 0 0 0 0
0 0 0 0 0 0 0 0 0 0 0 0 0 0 0 0 0 0 0 0 0 0 0 0 0 0 0 0 0 0 0 0 0 0 0 0 0 0 0 0 0 0 0
0 0 0 0 0 0 0 0 0 0 0 0 0 0 0 0 0 0 0 0 0 0 0 0 0 0 0 0 0 0 0 0 0 0 0 0 0 0 0 0 0 0 0
0 0 0 0 0 0 0 0 0 0 0 0 0 0 0 0 0 0 0 0 0 0 0 0 0 0 0 0 0 0 0 0 0 0 0 0 0 0 0 0 0 0 0
0 0 0 0 0 0 0 0 0 0 0 0 0 0 0 0 0 0 0 0 0 0 0 0 0 0 0 0 0 0 0 0 0 0 0 0 0 0 0 0 0 0 0
0 0 0 0 0 0 0 0 0 0 0 0 0 0 0 0 0 0 0 0 0 0 0 0 0 0 0 0 0 0 0 0 0 0 0 0 0 0 0 0 0 0 0
Wind_Speed
10 9 8 7 7 6 7 6 5 6 6 6 4 5 4 5 5 5 3 7 7 6 6 6 5 5 4 3 3 2 2 1 1 2 2 3 4 5 5 6 7 7 8
10 9 9 8 7 7 7 6 6 5 5 4 4 5 5 5 5 5 4 4 6 6 6 6 5 4 4 3 2 2 1 1 1 1 2 3 4 5 6 6 7 8 8
12 10 9 8 7 7 7 5 6 5 4 4 4 4 4 4 5 5 5 4 3 4 5 5 5 5 4 4 3 3 3 3 3 3 4 4 5 6 6 7 8 8 9
13 10 9 8 8 7 6 5 6 5 4 4 3 3 3 3 4 4 4 4 4 3 4 6 6 5 5 5 5 5 4 5 5 5 5 5 6 7 7 8 9 9 10
14 11 9 8 9 7 6 6 5 5 5 4 4 3 3 2 2 3 3 4 4 4 3 5 6 5 6 6 6 7 6 6 6 7 7 7 7 8 8 9 10 10 11
14 12 10 11 10 8 7 6 7 5 5 5 4 3 2 2 2 2 3 3 3 4 4 4 4 4 7 8 8 8 8 8 8 8 8 9 9 9 9 10 11 11 12
15 13 11 12 10 8 9 9 7 7 5 4 4 2 1 2 3 3 3 3 4 4 4 4 4 3 3 8 9 10 10 10 10 10 9 10 10 10 11 11 12 12 13
15 14 14 12 11 9 10 9 8 6 5 5 5 4 2 1 3 3 3 3 4 3 4 5 4 4 4 3 5 9 10 10 11 11 11 11 11 12 12 12 13 13 14
14 14 15 13 12 10 10 10 9 8 7 5 5 5 4 4 2 2 4 4 4 3 4 4 5 5 5 4 4 7 9 11 11 12 12 12 12 13 13 13 13 14 15
14 15 15 14 13 10 10 10 8 7 8 7 5 3 3 4 4 2 2 3 5 5 5 4 5 5 5 4 4 7 8 10 11 12 12 12 13 13 13 13 14 14 15
13 15 15 13 13 10 11 11 9 9 7 7 5 3 2 1 2 3 2 3 3 4 4 4 4 4 4 4 4 5 7 8 10 11 12 13 13 13 14 14 14 15 15
11 14 15 13 12 11 12 11 10 10 8 7 5 4 4 3 3 3 3 3 3 3 3 3 4 4 3 4 5 6 7 8 9 10 11 11 12 13 13 14 14 14 15
10 14 14 14 12 11 11 11 10 10 10 9 7 5 4 4 3 3 3 3 2 1 2 2 3 4 4 3 3 6 6 7 8 9 9 10 10 11 12 13 13 14 15
10 14 14 13 13 13 12 11 9 9 9 9 8 7 4 4 4 4 4 3 2 1 2 4 2 3 3 3 4 5 3 7 7 8 8 8 9 10 10 11 12 13 14
10 14 15 14 13 13 13 12 9 10 9 9 8 8 5 4 4 4 3 4 4 2 3 3 2 2 3 3 4 3 3 5 6 7 7 7 8 8 9 10 11 12 12
11 14 15 15 14 14 13 11 9 10 10 9 7 8 7 5 4 4 4 3 4 4 3 2 2 2 3 2 4 2 2 4 5 6 7 7 7 8 8 9 10 11 12
13 14 14 15 15 15 14 12 11 11 11 10 9 10 9 7 5 5 4 4 4 4 4 3 1 1 2 2 1 1 1 1 2 4 6 7 7 7 8 9 9 10 11
11 14 14 14 14 14 14 14 13 13 13 12 11 10 10 7 7 6 5 5 4 4 4 4 2 1 1 2 1 1 1 1 1 4 5 6 7 7 8 8 8 9 10
9 12 13 14 14 14 14 13 13 13 12 12 11 11 10 9 8 6 6 6 4 4 3 3 2 1 1 1 0 1 1 1 2 3 4 5 6 7 7 8 8 8 9
10 10 12 12 12 12 12 12 12 12 11 10 10 10 10 10 9 8 7 7 5 4 3 3 2 1 1 1 1 1 2 2 2 2 3 4 5 6 7 8 8 8 9
10 10 11 11 11 10 11 12 11 11 11 10 9 9 9 10 10 8 6 6 6 5 3 3 2 2 2 1 1 1 2 2 2 1 2 3 3 2 3 5 6 8 9
9 10 10 11 11 9 12 15 12 10 10 10 9 8 8 9 10 10 9 9 8 7 6 4 3 3 3 3 2 1 1 1 2 1 1 4 2 2 2 2 6 8 9
7 9 10 10 11 11 15 16 15 10 9 10 10 9 7 8 10 8 8 8 6 6 7 6 5 4 4 3 2 2 2 2 3 1 1 3 2 3 3 4 7 8 9
5 8 9 10 9 10 16 16 15 10 8 9 9 10 10 9 9 10 8 6 4 3 4 4 4 3 3 2 2 2 2 1 1 1 1 2 2 3 4 3 6 7 10
4 6 7 9 9 10 15 16 15 9 7 8 8 9 10 9 14 15 11 9 6 4 5 8 8 6 6 5 4 3 2 1 1 1 1 1 2 3 3 3 4 8 11
4 5 6 7 9 9 14 16 16 8 8 7 7 8 11 11 15 16 11 10 9 6 6 5 5 4 3 4 4 3 2 1 0 1 1 0 1 2 4 3 3 3 5
Wind_Direction
155 154 154 156 157 151 155 164 166 155 150 166 168 150 134 124 123 118 120 121 127 141 147 146 147 147 144 139 126 121 114 91 51 27 12 6 2 359 355 352 349 348 345
157 158 155 158 158 154 159 161 161 152 150 152 155 148 141 136 134 132 137 132 137 149 155 160 166 170 171 172 177 188 194 233 280 313 323 330 334 335 335 335 334 333 332
157 157 154 157 157 154 155 158 155 145 142 142 152 149 145 144 145 148 150 152 151 160 170 177 182 192 198 206 216 222 228 249 269 281 293 304 312 315 318 321 321 322 322
158 156 153 156 155 153 156 157 148 142 142 148 152 148 137 141 155 161 157 159 161 164 178 189 196 207 216 225 232 235 239 252 262 272 279 289 298 304 308 310 313 314 316
159 157 155 155 155 154 155 157 148 148 151 158 153 144 141 152 170 163 167 168 165 160 163 183 195 213 223 233 241 243 249 257 263 272 277 283 289 293 299 303 307 309 311
161 159 156 157 156 155 158 157 153 153 154 154 147 142 152 168 172 180 186 171 167 171 175 182 188 214 225 233 243 251 252 257 264 272 277 280 285 289 294 299 302 305 307
165 161 159 159 159 160 162 160 155 155 155 144 125 124 178 194 196 201 192 178 183 188 189 193 195 198 213 228 238 248 255 259 263 269 275 279 282 287 292 296 299 303 305
168 163 162 161 161 161 163 165 157 152 161 154 145 141 161 239 246 209 189 190 196 191 196 204 205 205 202 200 226 238 250 259 265 269 273 278 282 286 289 294 298 301 303
170 166 164 161 164 164 168 168 165 159 162 169 168 159 159 190 198 220 205 197 199 200 205 207 210 211 208 203 211 228 239 254 264 270 274 277 281 285 289 293 296 299 302
170 168 165 164 166 166 167 170 166 160 160 171 187 198 174 152 148 174 233 214 206 207 208 208 208 211 209 205 208 217 230 246 261 269 274 278 282 286 289 293 296 300 302
172 169 165 167 169 168 168 170 167 166 167 171 173 173 184 153 148 146 194 218 223 223 210 206 203 210 210 203 205 216 224 240 257 268 275 280 285 289 293 297 299 301 302
171 172 169 170 171 170 170 172 170 171 173 173 173 169 163 163 182 169 182 196 213 230 213 208 205 208 205 197 205 213 224 237 253 265 274 281 287 291 295 298 301 303 304
174 175 174 172 172 172 171 170 171 174 176 176 177 178 179 183 176 168 164 189 200 225 213 226 215 204 200 184 198 217 230 239 252 264 274 282 288 292 295 299 302 305 307
176 173 174 174 171 172 173 171 172 176 177 179 181 177 179 190 185 176 166 162 169 245 228 234 227 203 185 175 194 205 230 242 254 266 274 280 285 291 296 301 304 307 309
175 175 175 174 173 173 175 173 177 177 177 181 181 180 181 187 186 183 170 161 162 195 239 229 218 198 175 169 185 194 218 243 256 266 272 278 284 290 296 301 304 307 309
174 174 176 175 175 175 176 176 175 176 176 179 177 181 186 187 185 181 178 178 173 177 215 224 208 190 175 174 182 183 212 253 257 266 275 280 285 290 296 300 303 305 308
176 174 175 176 177 178 178 180 180 177 180 180 180 185 190 185 182 182 177 178 185 180 212 238 218 184 169 185 174 198 219 223 253 272 278 283 286 292 295 300 304 308 311
180 175 174 178 179 180 181 182 183 182 183 184 184 185 190 185 184 180 178 186 192 191 193 220 226 187 181 175 165 208 254 255 250 279 280 284 289 292 295 301 308 313 316
180 176 176 179 180 182 183 183 184 183 185 185 184 187 187 182 187 182 181 186 189 191 188 195 214 177 169 146 157 261 276 285 289 295 295 293 295 300 305 310 314 317 316
179 179 178 179 179 180 182 181 182 183 183 183 183 184 185 186 187 183 183 186 181 183 181 181 192 187 198 187 154 244 282 289 292 312 307 311 307 306 307 308 312 315 315
181 180 179 178 177 180 182 180 180 181 179 178 178 179 181 180 180 179 179 178 176 178 173 176 189 189 199 190 217 215 248 288 291 291 311 301 297 293 299 305 308 311 315
183 178 178 179 180 185 182 180 176 177 175 176 176 171 170 171 172 171 168 168 171 177 181 180 189 196 209 211 200 193 218 293 290 319 324 294 283 286 288 287 311 318 320
185 178 178 179 182 182 175 176 179 174 175 176 174 171 169 170 165 162 159 153 154 161 170 175 183 196 191 199 179 193 213 225 241 275 341 291 301 293 298 309 314 320 326
186 183 180 181 180 181 175 174 173 176 173 173 174 173 170 168 169 159 150 144 137 139 155 156 162 163 158 157 168 184 196 226 275 348 51 289 301 296 306 299 306 324 331
189 187 179 182 180 176 173 171 168 174 173 173 170 169 169 168 165 158 154 151 144 137 120 127 124 118 113 109 113 109 101 92 282 287 30 313 298 309 305 295 312 329 332
190 187 177 180 179 173 171 169 169 170 171 170 166 167 170 167 166 163 163 161 164 167 149 135 123 103 96 86 89 116 152 148 186 268 299 349 311 337 318 304 313 321 327